NOAA 16 DEB, 41084

Orbit data source: Space-Track

NOAA 16 DEB, 41084 is space debris in SSO originally from a launch on Thu, 21 Sep 2000 UTC launched from the Air Force Western Test Range (AFWTR). Debris objects in space refer to the collection of defunct objects orbiting the Earth. Examples of debris include non-operational satellites, rocket bodies, and fragments generated from explosions, collisions, or faulty payload assembly.

Loading next visibility...
Identifier
41084, 2000-055AT
Orbit
SSO
Country
Flag of USUS
Related business
Manufacturer
Unknown
Mission
Spacecraft
Bus & Motor
Unknown
Mass
Unknown
Launch date (UTC)
2000-09-21 (25 years ago)
Launch vehicle
Unknown
Launch site
Air Force Western Test Range (AFWTR)
Object type
Payload
Rocket body
Debris
Shape & HBR
Unknown shape, 0.1 m
Radar Cross Section
Small (<0.1 m²)

Expand to show TLE details & history
Last TLE update: 18 hours ago

TLE from 18 hours ago
0 NOAA 16 DEB
1 41084U 00055AT  25289.22678657  .00001940  00000-0  88215-3 0  9997
2 41084  98.7061  13.6634 0016203 204.6435 155.3970 14.22839189511463
Epoch: 2025-10-16T05:26Z
TLE epoch observation values (Epoch: 2025-10-16T05:26:34.359Z)
Latitude
-0.00008°
Longitude
-92.96929°
Altitude
829.289 km
Speed
7.433 km/s
True Right ascension
00h 54m 39s
True Declination
0° 00' 00"
Sunlit
Object was in full shadow at epoch
Visualization orbit readout
Latitude
Unknown
Longitude
Unknown
Altitude
Unknown
Speed
Unknown
Apparent Right ascension
Unknown
Apparent Declination
Unknown
Sunlit
N/A
Visualization observer readout
Local Sidereal Time
18:29:15
Azimuth
Unknown
Elevation
Unknown
Doppler factor
Unknown
Orbital elements
Apogee altitude
824.573 km
Perigee altitude
801.27 km
Semi-major axis
7,191.058 km
Eccentricity
0.00162
Inclination
98.7061°
RAAN
13.6634°
Arg. of periapsis
204.6435°
True anomaly
155.47416°
Mean anomaly
155.397°
Eccentric anomaly
155.43559°
Mean motion
3.55921 °/min
Orbital period
101.15 mins
BSTAR
0.00088215
Loading maneuver chart data...
Computing Atmospheric mass density...

Documentation

Showing up to 5 results
|